TimeMST,TemperatureF,Dew PointF,Humidity,Sea Level PressureIn,VisibilityMPH,Wind Direction,Wind SpeedMPH,Gust SpeedMPH,PrecipitationIn,Events,Conditions,WindDirDegrees,DateUTC
12:40 AM,57.2,55.4,94,29.96,10.0,North,6.9,-,N/A,,Clear,10,2013-01-27 07:40:00
1:40 AM,55.4,53.6,94,29.95,10.0,SE,6.9,-,N/A,,Clear,130,2013-01-27 08:40:00
2:40 AM,55.4,53.6,94,29.96,4.0,NNE,6.9,-,N/A,,Clear,20,2013-01-27 09:40:00
3:50 AM,55.4,53.6,94,29.96,4.0,North,8.1,-,N/A,,Clear,360,2013-01-27 10:50:00
4:42 AM,55.4,53.6,94,29.96,4.0,NNE,8.1,-,N/A,,Clear,20,2013-01-27 11:42:00
5:40 AM,55.4,53.6,94,29.96,4.0,NNE,9.2,-,N/A,,Clear,20,2013-01-27 12:40:00
6:41 AM,55.4,53.6,94,29.98,3.0,NNE,8.1,-,N/A,,Clear,20,2013-01-27 13:41:00
7:50 AM,57.2,57.2,100,29.99,5.0,NNE,6.9,-,N/A,Fog,Scattered Clouds,20,2013-01-27 14:50:00
8:49 AM,66.2,62.6,88,30.00,8.0,NNE,6.9,-,N/A,,Clear,20,2013-01-27 15:49:00
9:44 AM,71.6,64.4,78,30.01,10.0,ESE,6.9,-,N/A,,Partly Cloudy,110,2013-01-27 16:44:00
10:50 AM,75.2,66.2,73,30.01,10.0,South,6.9,-,N/A,,Clear,170,2013-01-27 17:50:00
11:49 AM,78.8,66.2,65,29.99,12.0,SSE,6.9,-,N/A,,Clear,160,2013-01-27 18:49:00
12:45 PM,78.8,64.4,61,29.97,12.0,South,8.1,-,N/A,,Clear,170,2013-01-27 19:45:00
1:42 PM,78.8,64.4,61,29.95,12.0,South,9.2,-,N/A,,Clear,190,2013-01-27 20:42:00
2:40 PM,82.4,64.4,54,29.94,12.0,SSW,10.4,-,N/A,,Clear,200,2013-01-27 21:40:00
3:42 PM,77.0,64.4,65,29.93,10.0,SSW,9.2,-,N/A,,Clear,210,2013-01-27 22:42:00
4:48 PM,75.2,64.4,69,29.92,12.0,WSW,9.2,-,N/A,,Clear,240,2013-01-27 23:48:00
5:41 PM,71.6,64.4,78,29.94,10.0,WSW,8.1,-,N/A,,Clear,240,2013-01-28 00:41:00
6:43 PM,68.0,64.4,88,29.96,10.0,SW,8.1,-,N/A,,Clear,230,2013-01-28 01:43:00
7:41 PM,66.2,64.4,94,29.97,10.0,WNW,4.6,-,N/A,,Clear,300,2013-01-28 02:41:00
8:40 PM,64.4,62.6,94,29.98,10.0,North,6.9,-,N/A,,Clear,350,2013-01-28 03:40:00
9:46 PM,62.6,60.8,94,29.98,10.0,ENE,6.9,-,N/A,,Clear,60,2013-01-28 04:46:00
10:45 PM,60.8,57.2,88,30.00,10.0,WNW,6.9,-,N/A,,Clear,300,2013-01-28 05:45:00
11:42 PM,60.8,57.2,88,29.99,10.0,WNW,5.8,-,N/A,,Clear,290,2013-01-28 06:42:00